Leonardtown, MD

6:14 AM EDT on July 22, 2017 (GMT -0400)
Leonardtown

Weather History for K2W6 - August, 2013

Change the Weather History Date:

Wednesday, August 7, 2013

  Actual Average (KNHK) Record (KNHK)
Temperature  
Mean Temperature 75 °F -  
Max Temperature 82 °F 87 °F 97 °F (1977)
Min Temperature 68 °F 71 °F 57 °F (2004)
Cooling Degree Days 10    
Growing Degree Days 25 (Base 50)    
Moisture  
Dew Point 67 °F    
Average Humidity 78    
Maximum Humidity 94    
Minimum Humidity 54    
Precipitation  
Precipitation 0.00 in - - ()
Sea Level Pressure  
Sea Level Pressure 30.08 in    
Wind  
Wind Speed 2 mph (SSE)    
Max Wind Speed 9 mph    
Max Gust Speed -    
Visibility 9 miles    
Events      
Averages and records for this station are not official NWS values.
T = Trace of Precipitation, MM = Missing Value Source: NWS Daily Summary

Daily Weather History Graph

Daily Weather History Graph

Search for Another Location

Airport or City:

Trip Planner

Search our weather history database for the weather conditions in past years. The results will help you decide how hot, cold, wet, or windy it might be!

Date:

Astronomy

Aug. 07, 2013 Rise Set
Actual Time 6:13 AM EDT 8:09 PM EDT
Civil Twilight 5:45 AM EDT 8:38 PM EDT
Nautical Twilight 5:09 AM EDT 9:13 PM EDT
Astronomical Twilight 4:32 AM EDT 9:50 PM EDT
Moon 6:58 AM EDT (8/7) 8:17 PM EDT (8/7)
Length of Visible Light 14h 53m
Length of Day
13h 55m
New Moon, 1% of the Moon is Illuminated
Aug 7
New Moon
Aug 14
First Quarter
Aug 20
Full
Aug 28
Last Quarter
Sep 5
New

Hourly Weather History & Observations

Time (EDT) Temp. Heat Index Dew Point Humidity Pressure Visibility Wind Dir Wind Speed Gust Speed Precip Events Conditions
12:07 AM 69.8 °F - 64.4 °F 83% 30.10 in 10.0 mi Calm Calm - N/A   Overcast
12:27 AM 68.0 °F - 64.4 °F 88% 30.10 in 10.0 mi Calm Calm - N/A   Overcast
12:47 AM 68.0 °F - 64.4 °F 88% 30.10 in 10.0 mi Calm Calm - N/A   Overcast
1:07 AM 68.0 °F - 64.4 °F 88% 30.09 in 10.0 mi Calm Calm - N/A   Overcast
1:27 AM 68.0 °F - 64.4 °F 88% 30.09 in 10.0 mi Calm Calm - N/A   Overcast
1:47 AM 68.0 °F - 64.4 °F 88% 30.09 in 10.0 mi Calm Calm - N/A   Mostly Cloudy
2:07 AM 68.0 °F - 64.4 °F 88% 30.09 in 10.0 mi Calm Calm - N/A   Overcast
2:27 AM 68.0 °F - 64.4 °F 88% 30.09 in 7.0 mi Calm Calm - N/A   Overcast
2:47 AM 68.0 °F - 64.4 °F 88% 30.10 in 5.0 mi Calm Calm - N/A   Overcast
3:07 AM 68.0 °F - 64.4 °F 88% 30.09 in 1.5 mi Calm Calm - N/A   Overcast
3:27 AM 68.0 °F - 64.4 °F 88% 30.09 in 1.8 mi Calm Calm - N/A   Overcast
3:47 AM 68.0 °F - 64.4 °F 88% 30.09 in 4.0 mi Calm Calm - N/A   Overcast
4:07 AM 68.0 °F - 64.4 °F 88% 30.09 in 5.0 mi Calm Calm - N/A   Overcast
4:28 AM 68.0 °F - 66.2 °F 94% 30.09 in 10.0 mi Calm Calm - N/A   Overcast
4:48 AM 69.8 °F - 64.4 °F 83% 30.09 in 10.0 mi Calm Calm - N/A   Overcast
5:08 AM 68.0 °F - 64.4 °F 88% 30.09 in 10.0 mi Calm Calm - N/A   Overcast
5:28 AM 68.0 °F - 64.4 °F 88% 30.09 in 10.0 mi Calm Calm - N/A   Mostly Cloudy
5:48 AM 68.0 °F - 64.4 °F 88% 30.09 in 10.0 mi Calm Calm - N/A   Mostly Cloudy
6:08 AM 68.0 °F - 64.4 °F 88% 30.09 in 10.0 mi Calm Calm - N/A   Scattered Clouds
6:28 AM 68.0 °F - 64.4 °F 88% 30.10 in 7.0 mi Calm Calm - N/A   Mostly Cloudy
6:48 AM 68.0 °F - 64.4 °F 88% 30.10 in 7.0 mi Calm Calm - N/A   Overcast
7:08 AM 68.0 °F - 64.4 °F 88% 30.11 in 7.0 mi Calm Calm - N/A   Overcast
7:28 AM 69.8 °F - 66.2 °F 88% 30.10 in 5.0 mi Calm Calm - N/A   Overcast
7:48 AM 69.8 °F - 66.2 °F 88% 30.10 in 5.0 mi Calm Calm - N/A   Overcast
8:08 AM 69.8 °F - 68.0 °F 94% 30.10 in 7.0 mi SE 3.5 mph - N/A   Overcast
8:28 AM 69.8 °F - 68.0 °F 94% 30.10 in 7.0 mi Calm Calm - N/A   Overcast
8:48 AM 69.8 °F - 68.0 °F 94% 30.10 in 10.0 mi SSE 3.5 mph - N/A   Overcast
9:08 AM 71.6 °F - 68.0 °F 88% 30.10 in 10.0 mi SE 5.8 mph - N/A   Overcast
9:48 AM 71.6 °F - 68.0 °F 88% 30.11 in 10.0 mi SSE 4.6 mph - N/A   Overcast
10:08 AM 73.4 °F - 68.0 °F 83% 30.10 in 10.0 mi SSE 3.5 mph - N/A   Overcast
10:28 AM 73.4 °F - 68.0 °F 83% 30.10 in 10.0 mi South 4.6 mph - N/A   Overcast
10:48 AM 75.2 °F - 68.0 °F 78% 30.11 in 10.0 mi South 5.8 mph - N/A   Overcast
11:08 AM 75.2 °F - 68.0 °F 78% 30.10 in 10.0 mi SSE 4.6 mph - N/A   Overcast
11:28 AM 77.0 °F - 68.0 °F 74% 30.10 in 10.0 mi South 5.8 mph - N/A   Overcast
11:48 AM 78.8 °F - 68.0 °F 69% 30.10 in 10.0 mi South 3.5 mph - N/A   Mostly Cloudy
12:08 PM 78.8 °F - 68.0 °F 69% 30.09 in 10.0 mi South 6.9 mph - N/A   Mostly Cloudy
12:28 PM 78.8 °F - 68.0 °F 69% 30.10 in 10.0 mi SSW 4.6 mph - N/A   Mostly Cloudy
12:49 PM 78.8 °F - 68.0 °F 69% 30.10 in 10.0 mi South 6.9 mph - N/A   Overcast
1:09 PM 78.8 °F - 68.0 °F 69% 30.10 in 10.0 mi South 3.5 mph - N/A   Mostly Cloudy
1:29 PM 80.6 °F 83.2 °F 68.0 °F 65% 30.09 in 10.0 mi SSW 6.9 mph - N/A   Mostly Cloudy
1:49 PM 80.6 °F 82.7 °F 66.2 °F 61% 30.09 in 10.0 mi SSW 6.9 mph - N/A   Mostly Cloudy
2:09 PM 80.6 °F 82.7 °F 66.2 °F 61% 30.08 in 10.0 mi South 5.8 mph - N/A   Scattered Clouds
2:29 PM 80.6 °F 82.7 °F 66.2 °F 61% 30.07 in 10.0 mi SSE 5.8 mph - N/A   Scattered Clouds
2:49 PM 80.6 °F 83.2 °F 68.0 °F 65% 30.07 in 10.0 mi South 6.9 mph - N/A   Scattered Clouds
3:09 PM 82.4 °F 85.4 °F 68.0 °F 62% 30.07 in 10.0 mi South 5.8 mph - N/A   Scattered Clouds
3:29 PM 80.6 °F 83.2 °F 68.0 °F 65% 30.07 in 10.0 mi South 4.6 mph - N/A   Mostly Cloudy
3:49 PM 80.6 °F 82.7 °F 66.2 °F 61% 30.06 in 10.0 mi SSW 6.9 mph - N/A   Mostly Cloudy
4:09 PM 82.4 °F 84.6 °F 66.2 °F 58% 30.06 in 10.0 mi South 8.1 mph - N/A   Overcast
4:29 PM 80.6 °F 82.7 °F 66.2 °F 61% 30.06 in 10.0 mi South 4.6 mph - N/A   Overcast
4:49 PM 82.4 °F 83.9 °F 64.4 °F 54% 30.05 in 10.0 mi South 8.1 mph - N/A   Mostly Cloudy
5:09 PM 82.4 °F 83.9 °F 64.4 °F 54% 30.04 in 10.0 mi SSE 5.8 mph - N/A   Scattered Clouds
5:29 PM 82.4 °F 83.9 °F 64.4 °F 54% 30.05 in 10.0 mi South 3.5 mph - N/A   Scattered Clouds
5:49 PM 80.6 °F 82.3 °F 64.4 °F 58% 30.05 in 10.0 mi South 5.8 mph - N/A   Mostly Cloudy
6:09 PM 80.6 °F 83.2 °F 68.0 °F 65% 30.06 in 10.0 mi SE 6.9 mph - N/A   Overcast
6:29 PM 78.8 °F - 69.8 °F 74% 30.05 in 10.0 mi SSE 8.1 mph - N/A   Overcast
6:49 PM 78.8 °F - 69.8 °F 74% 30.04 in 10.0 mi SSE 9.2 mph - N/A   Mostly Cloudy
7:09 PM 78.8 °F - 68.0 °F 69% 30.04 in 10.0 mi SE 8.1 mph - N/A   Scattered Clouds
7:29 PM 77.0 °F - 68.0 °F 74% 30.05 in 10.0 mi SE 6.9 mph - N/A   Scattered Clouds
7:49 PM 77.0 °F - 68.0 °F 74% 30.05 in 10.0 mi SE 4.6 mph - N/A   Scattered Clouds
8:09 PM 77.0 °F - 68.0 °F 74% 30.06 in 10.0 mi SSE 6.9 mph - N/A   Scattered Clouds
8:29 PM 77.0 °F - 68.0 °F 74% 30.05 in 10.0 mi SSE 4.6 mph - N/A   Clear
8:49 PM 77.0 °F - 68.0 °F 74% 30.05 in 10.0 mi SSE 6.9 mph - N/A   Clear
9:09 PM 77.0 °F - 68.0 °F 74% 30.06 in 10.0 mi SSE 6.9 mph - N/A   Clear
9:29 PM 75.2 °F - 68.0 °F 78% 30.07 in 10.0 mi SSE 4.6 mph - N/A   Clear
9:50 PM 75.2 °F - 68.0 °F 78% 30.07 in 10.0 mi SSE 3.5 mph - N/A   Clear
10:10 PM 75.2 °F - 68.0 °F 78% 30.07 in 10.0 mi SE 4.6 mph - N/A   Scattered Clouds
10:30 PM 73.4 °F - 68.0 °F 83% 30.07 in 10.0 mi SE 3.5 mph - N/A   Scattered Clouds
10:50 PM 73.4 °F - 68.0 °F 83% 30.07 in 10.0 mi SSE 3.5 mph - N/A   Scattered Clouds
11:10 PM 73.4 °F - 68.0 °F 83% 30.07 in 10.0 mi SSE 4.6 mph - N/A   Clear
11:30 PM 73.4 °F - 68.0 °F 83% 30.07 in 10.0 mi SSE 3.5 mph - N/A   Clear
11:50 PM 73.4 °F - 68.0 °F 83% 30.07 in 10.0 mi SSE 3.5 mph - N/A   Clear